DW3212 Weather Reports


time (UTC)temp
C
wind
direction
speed
KPH
gust
KPH
rain 1hr
cm
rain 24hr
cm
rain mn
cm
humidity
%
barometer
mb
20260510204558 14 0.0 0.0 0.00 0.10 0.03 60 1011.8
20260510203055 13 0.0 0.0 0.00 0.10 0.03 63 1012.1
20260510201559 14 0.0 0.0 0.00 0.10 0.03 61 1011.9
20260510200108 14 0.0 0.0 0.00 0.10 0.03 64 1012.0
20260510194608 13 0.0 0.0 0.00 0.23 0.03 66 1012.1
20260510193113 13 0.0 0.0 0.00 0.23 0.03 67 1012.3
20260510191555 13 0.0 0.0 0.00 0.23 0.03 72 1012.5
20260510190056 12 0.0 0.0 0.00 0.23 0.03 74 1012.6
20260510184602 12 0.0 0.0 0.00 0.53 0.03 77 1012.7
20260510183056 12 0.0 0.0 0.00 0.53 0.03 77 1012.8
20260510181556 12 0.0 0.0 0.00 0.53 0.03 77 1012.5
20260510180059 13 0.0 0.0 0.00 0.53 0.03 76 1012.4
20260510174604 13 0.0 0.0 0.00 0.76 0.03 76 1012.2
20260510173102 12 0.0 0.0 0.00 0.76 0.03 78 1012.2
20260510171559 13 0.0 0.0 0.00 0.76 0.03 79 1012.2
20260510170059 12 0.0 0.0 0.00 0.76 0.03 79 1012.3
20260510164611 11 0.0 0.0 0.00 1.02 0.03 80 1012.5
20260510163059 11 0.0 0.0 0.00 1.02 0.03 79 1012.5
20260510161610 12 0.0 0.0 0.00 1.02 0.03 78 1012.3
20260510160101 12 0.0 0.0 0.00 1.02 0.03 76 1012.2
20260510154604 13 0.0 0.0 0.00 1.32 0.03 73 1012.1
20260510153100 14 0.0 0.0 0.00 1.32 0.03 71 1011.9
20260510151557 14 0.0 0.0 0.00 1.32 0.03 71 1011.8
20260510150124 13 0.0 0.0 0.00 1.32 0.03 71 1011.4
20260510144619 14 0.0 0.0 0.00 1.52 0.03 72 1011.3
20260510143058 14 0.0 0.0 0.00 1.52 0.03 73 1011.1
20260510141603 14 0.0 0.0 0.00 1.52 0.03 77 1011.1
20260510140055 14 0.0 0.0 0.00 1.52 0.03 71 1010.9
20260510134608 13 0.0 0.0 0.00 1.73 0.03 74 1010.8
20260510133054 12 0.0 0.0 0.00 1.73 0.03 80 1010.9
20260510131555 12 0.0 0.0 0.00 1.73 0.03 78 1011.1
20260510130056 12 0.0 0.0 0.00 1.73 0.03 81 1011.1
20260510124553 11 0.0 0.0 0.00 1.80 0.03 87 1011.1
20260510123056 9 0.0 0.0 0.00 1.80 0.03 96 1010.8
20260510121557 9 0.0 0.0 0.00 1.80 0.03 94 1011.0
20260510120055 8 0.0 0.0 0.00 1.80 0.03 97 1010.9
20260510114612 8 0.0 0.0 0.00 1.80 0.03 97 1010.9
20260510113059 7 0.0 0.0 0.00 1.80 0.03 97 1011.0
20260510111557 7 0.0 0.0 0.00 1.80 0.03 97 1011.0
20260510110058 7 0.0 0.0 0.00 1.80 0.03 98 1010.5
20260510104606 7 0.0 0.0 0.00 1.80 0.03 98 1010.2
20260510103058 6 0.0 0.0 0.00 1.80 0.03 97 1009.9
20260510101605 6 0.0 0.0 0.00 1.80 0.03 97 1009.9
20260510094606 7 0.0 0.0 0.00 1.80 0.03 97 1009.2
20260510093104 7 0.0 0.0 0.00 1.80 0.03 97 1009.2
20260510091558 7 0.0 0.0 0.00 1.80 0.03 97 1009.2
20260510090059 7 0.0 0.0 0.00 1.80 0.03 97 1009.0
20260510084556 7 0.0 0.0 0.03 1.80 0.03 97 1009.0
20260510083102 7 0.0 0.0 0.03 1.80 0.03 98 1009.1
20260510081601 7 0.0 0.0 0.03 1.80 0.03 98 1009.7
20260510074608 7 0.0 0.0 0.00 1.78 0.00 98 1009.6
20260510073059 7 0.0 0.0 0.00 1.78 0.00 98 1009.8
20260510071603 7 0.0 0.0 0.00 1.78 0.00 98 1009.6
20260510070108 7 0.0 0.0 0.00 1.78 0.00 98 1009.4
20260510064602 6 0.0 0.0 0.00 1.78 0.00 98 1009.3
20260510063108 6 0.0 0.0 0.00 1.78 0.00 98 1009.4
20260510061559 6 0.0 0.0 0.00 1.78 0.00 97 1009.7
20260510054605 6 0.0 0.0 0.00 1.78 0.00 98 1009.6
20260510053055 7 0.0 0.0 0.00 1.78 0.00 98 1009.6
20260510051604 7 0.0 0.0 0.00 1.78 0.00 98 1009.7
20260510050055 7 0.0 0.0 0.00 1.78 0.00 98 1009.6
20260510044606 7 0.0 0.0 0.00 1.78 0.00 98 1009.8
20260510043059 7 0.0 0.0 0.00 1.78 0.00 98 1009.8
20260510041559 6 0.0 0.0 0.00 1.78 0.00 98 1009.9
20260510040058 6 0.0 0.0 0.00 1.78 0.00 98 1009.8
20260510034553 6 0.0 0.0 0.00 1.78 1.78 98 1010.1
20260510033121 6 0.0 0.0 0.00 1.78 1.78 98 1010.0
20260510031619 6 0.0 0.0 0.00 1.78 1.78 97 1010.1
20260510024556 6 0.0 0.0 0.00 1.78 1.78 97 1009.9
20260510023056 6 0.0 0.0 0.00 1.78 1.78 97 1010.1
20260510021556 6 0.0 0.0 0.00 1.78 1.78 97 1010.1
20260510020054 6 0.0 0.0 0.00 1.78 1.78 97 1010.3
20260510014607 6 0.0 0.0 0.00 1.78 1.78 97 1010.4
20260510013054 6 0.0 0.0 0.00 1.78 1.78 97 1010.2
20260510011559 6 0.0 0.0 0.00 1.78 1.78 97 1010.3
20260510004600 6 0.0 0.0 0.00 1.78 1.78 97 1010.0
20260510003103 6 0.0 0.0 0.00 1.78 1.78 97 1009.9
20260510001554 6 0.0 0.0 0.00 1.78 1.78 97 1009.6
20260510000056 6 0.0 0.0 0.00 1.78 1.78 97 1009.4
20260509234607 6 0.0 0.0 0.00 1.78 1.78 97 1009.4
20260509233055 6 0.0 0.0 0.00 1.78 1.78 97 1009.3
20260509231557 6 0.0 0.0 0.00 1.78 1.78 97 1009.4
20260509230055 6 0.0 0.0 0.00 1.78 1.78 97 1009.3
20260509224556 6 0.0 0.0 0.00 1.78 1.78 97 1009.3
20260509223100 6 0.0 0.0 0.00 1.78 1.78 97 1009.3
20260509221558 6 0.0 0.0 0.00 1.78 1.78 97 1009.3
20260509214557 6 0.0 0.0 0.03 1.78 1.78 96 1009.4
20260509213058 6 0.0 0.0 0.03 1.78 1.78 96 1009.6
20260509211557 5 0.0 0.0 0.05 1.78 1.78 96 1009.6
20260509210059 5 0.0 0.0 0.08 1.78 1.78 96 1009.7